• In Uzbekistan
  • List of Countries
  • For 7 days
  • Water Temperature
  • Satellite Maps
  • Weather Map
  • Weather Widgets
  • user-avatar
    Login

    Hourly Weather Krywe

    Today, 13 November, Tuesday

    Time Temperature Precipitation Wind Pressure Humidity
    00:00 +7°C° 0 mm 2 mps 727 mmHg 81%
    01:00 +7°C° 0 mm 2 mps 727 mmHg 82%
    02:00 +7°C° 0 mm 1 mps 727 mmHg 89%
    03:00 +6°C° 0 mm 2 mps 727 mmHg 88%
    04:00 +6°C° 0 mm 2 mps 727 mmHg 88%
    05:00 +6°C° 0 mm 2 mps 727 mmHg 87%
    06:00 +6°C° 0 mm 2 mps 727 mmHg 87%
    07:00 +6°C° 0 mm 2 mps 727 mmHg 87%
    08:00 +6°C° 0 mm 2 mps 727 mmHg 86%
    09:00 +8°C° 0 mm 3 mps 727 mmHg 78%
    10:00 +9°C° 0 mm 3 mps 727 mmHg 70%
    11:00 +11°C° 0 mm 3 mps 727 mmHg 62%
    12:00 +12°C° 0 mm 3 mps 727 mmHg 60%
    13:00 +12°C° 0 mm 3 mps 726 mmHg 58%
    14:00 +13°C° 0 mm 3 mps 726 mmHg 57%
    15:00 +12°C° 0 mm 3 mps 726 mmHg 61%
    16:00 +10°C° 0 mm 3 mps 726 mmHg 66%
    17:00 +9°C° 0 mm 3 mps 725 mmHg 71%
    18:00 +9°C° 0 mm 3 mps 725 mmHg 71%
    19:00 +9°C° 0 mm 3 mps 725 mmHg 71%
    20:00 +8°C° 0 mm 3 mps 725 mmHg 71%
    21:00 +9°C° 0 mm 3 mps 725 mmHg 71%
    22:00 +9°C° 0 mm 2 mps 725 mmHg 71%
    23:00 +9°C° 0 mm 2 mps 725 mmHg 72%

    Tomorrow, 14 November, Wednesday

    Time Temperature Precipitation Wind Pressure Humidity
    00:00 +9°C° 0.2 mm 2 mps 726 mmHg 75%
    01:00 +8°C° 0.2 mm 2 mps 726 mmHg 78%
    02:00 +8°C° 0.2 mm 2 mps 726 mmHg 81%
    03:00 +8°C° 0.3 mm 2 mps 726 mmHg 84%
    04:00 +8°C° 0.3 mm 2 mps 726 mmHg 86%
    05:00 +8°C° 0.3 mm 3 mps 726 mmHg 88%
    06:00 +7°C° 0 mm 3 mps 726 mmHg 89%
    07:00 +7°C° 0 mm 3 mps 726 mmHg 89%
    08:00 +5°C° 0 mm 3 mps 726 mmHg 90%
    09:00 +7°C° 0 mm 3 mps 726 mmHg 86%
    10:00 +6°C° 0 mm 4 mps 727 mmHg 83%
    11:00 +6°C° 0 mm 4 mps 727 mmHg 79%
    12:00 +6°C° 0.1 mm 4 mps 727 mmHg 79%
    13:00 +6°C° 0.1 mm 4 mps 727 mmHg 78%
    14:00 +6°C° 0.1 mm 4 mps 727 mmHg 77%
    15:00 +6°C° 0.1 mm 4 mps 727 mmHg 79%
    16:00 +5°C° 0.1 mm 3 mps 727 mmHg 80%
    17:00 +5°C° 0.1 mm 3 mps 727 mmHg 81%
    18:00 +5°C° 0.1 mm 3 mps 727 mmHg 83%
    19:00 +5°C° 0.1 mm 3 mps 727 mmHg 84%
    20:00 +5°C° 0.1 mm 3 mps 727 mmHg 86%
    21:00 +5°C° 0.1 mm 3 mps 727 mmHg 87%
    22:00 +4°C° 0.1 mm 3 mps 727 mmHg 88%
    23:00 +4°C° 0.1 mm 3 mps 727 mmHg 89%

    Day after tomorrow, 15 November, Thursday

    Time Temperature Precipitation Wind Pressure Humidity
    00:00 +4°C° 0.1 mm 3 mps 727 mmHg 89%
    01:00 +4°C° 0.1 mm 3 mps 728 mmHg 90%
    02:00 +4°C° 0.1 mm 3 mps 728 mmHg 91%
    03:00 +4°C° 0.1 mm 3 mps 728 mmHg 91%
    04:00 +4°C° 0.1 mm 3 mps 728 mmHg 91%
    05:00 +4°C° 0.1 mm 3 mps 728 mmHg 91%
    06:00 +4°C° 0.1 mm 3 mps 728 mmHg 91%
    07:00 +4°C° 0.1 mm 3 mps 728 mmHg 91%
    08:00 +4°C° 0.1 mm 3 mps 728 mmHg 90%
    09:00 +5°C° 0.1 mm 3 mps 728 mmHg 89%
    10:00 +5°C° 0.1 mm 3 mps 728 mmHg 87%
    11:00 +5°C° 0.1 mm 3 mps 728 mmHg 85%
    12:00 +5°C° 0.1 mm 4 mps 728 mmHg 84%
    13:00 +5°C° 0.1 mm 4 mps 728 mmHg 82%
    14:00 +5°C° 0.1 mm 4 mps 728 mmHg 81%
    15:00 +5°C° 0.1 mm 4 mps 728 mmHg 81%
    16:00 +5°C° 0.1 mm 3 mps 728 mmHg 81%
    17:00 +4°C° 0.1 mm 3 mps 729 mmHg 81%
    18:00 +4°C° 0 mm 3 mps 729 mmHg 82%
    19:00 +4°C° 0 mm 3 mps 729 mmHg 83%
    20:00 +3°C° 0 mm 3 mps 730 mmHg 83%
    21:00 +3°C° 0 mm 3 mps 730 mmHg 84%
    22:00 +2°C° 0 mm 3 mps 730 mmHg 85%
    23:00 +2°C° 0 mm 3 mps 730 mmHg 87%

    16 November, Friday

    Time Temperature Precipitation Wind Pressure Humidity
    00:00 +3°C° 0 mm 2 mps 730 mmHg 88%
    01:00 +2°C° 0 mm 2 mps 730 mmHg 89%
    02:00 +2°C° 0 mm 2 mps 731 mmHg 90%
    03:00 +2°C° 0 mm 2 mps 731 mmHg 91%
    04:00 +2°C° 0 mm 2 mps 731 mmHg 91%
    05:00 +2°C° 0 mm 2 mps 731 mmHg 91%
    06:00 +2°C° 0 mm 2 mps 731 mmHg 92%
    07:00 +2°C° 0 mm 2 mps 731 mmHg 92%
    08:00 +2°C° 0 mm 2 mps 732 mmHg 92%
    09:00 +3°C° 0 mm 2 mps 732 mmHg 87%
    10:00 +3°C° 0 mm 3 mps 732 mmHg 82%
    11:00 +3°C° 0 mm 3 mps 733 mmHg 77%
    12:00 +4°C° 0 mm 3 mps 732 mmHg 76%
    13:00 +4°C° 0 mm 3 mps 732 mmHg 74%
    14:00 +4°C° 0 mm 3 mps 732 mmHg 73%
    15:00 +4°C° 0 mm 3 mps 732 mmHg 75%
    16:00 +3°C° 0 mm 3 mps 732 mmHg 78%
    17:00 +3°C° 0 mm 3 mps 732 mmHg 80%
    18:00 +2°C° 0 mm 3 mps 732 mmHg 81%
    19:00 +2°C° 0 mm 3 mps 733 mmHg 82%
    20:00 +2°C° 0 mm 3 mps 733 mmHg 83%
    21:00 +1°C° 0 mm 3 mps 733 mmHg 85%
    22:00 0°C° 0 mm 3 mps 733 mmHg 86%
    23:00 0°C° 0 mm 3 mps 733 mmHg 87%

    17 November, Saturday

    Time Temperature Precipitation Wind Pressure Humidity
    00:00 -1°C° 0 mm 2 mps 733 mmHg 89%
    01:00 -1°C° 0 mm 2 mps 733 mmHg 90%
    02:00 -2°C° 0 mm 2 mps 733 mmHg 91%
    03:00 -2°C° 0 mm 2 mps 733 mmHg 91%
    04:00 -2°C° 0 mm 2 mps 733 mmHg 90%
    05:00 0°C° 0 mm 1 mps 733 mmHg 90%
    06:00 -2°C° 0 mm 2 mps 733 mmHg 89%
    07:00 -2°C° 0 mm 2 mps 733 mmHg 87%
    08:00 -3°C° 0 mm 2 mps 733 mmHg 86%
    09:00 -1°C° 0 mm 2 mps 733 mmHg 75%
    10:00 +1°C° 0 mm 2 mps 733 mmHg 65%
    11:00 +3°C° 0 mm 2 mps 733 mmHg 55%
    12:00 +3°C° 0 mm 2 mps 733 mmHg 51%
    13:00 +4°C° 0 mm 2 mps 733 mmHg 48%
    14:00 +5°C° 0 mm 2 mps 733 mmHg 44%
    15:00 +3°C° 0 mm 2 mps 732 mmHg 50%
    16:00 +2°C° 0 mm 2 mps 732 mmHg 56%
    17:00 -1°C° 0 mm 2 mps 732 mmHg 62%
    18:00 -1°C° 0 mm 2 mps 732 mmHg 64%
    19:00 -2°C° 0 mm 2 mps 732 mmHg 65%
    20:00 0°C° 0 mm 1 mps 732 mmHg 67%
    21:00 -1°C° 0 mm 1 mps 732 mmHg 66%
    22:00 -1°C° 0 mm 1 mps 732 mmHg 65%
    23:00 -1°C° 0 mm 1 mps 732 mmHg 64%

    18 November, Sunday

    Time Temperature Precipitation Wind Pressure Humidity
    00:00 -1°C° 0 mm 1 mps 731 mmHg 61%
    01:00 -1°C° 0 mm 1 mps 731 mmHg 59%
    02:00 -1°C° 0 mm 1 mps 730 mmHg 57%
    03:00 -1°C° 0 mm 1 mps 730 mmHg 56%
    04:00 -1°C° 0 mm 1 mps 729 mmHg 54%
    05:00 -1°C° 0 mm 1 mps 729 mmHg 53%
    06:00 -1°C° 0 mm 1 mps 729 mmHg 52%
    07:00 -1°C° 0 mm 1 mps 728 mmHg 51%
    08:00 -1°C° 0 mm 1 mps 728 mmHg 49%
    09:00 +1°C° 0 mm 1 mps 727 mmHg 46%
    10:00 +2°C° 0 mm 1 mps 727 mmHg 42%
    11:00 +3°C° 0 mm 2 mps 727 mmHg 38%
    12:00 +3°C° 0.1 mm 2 mps 726 mmHg 43%
    13:00 +3°C° 0.1 mm 2 mps 725 mmHg 47%
    14:00 +3°C° 0.1 mm 2 mps 724 mmHg 52%
    15:00 +2°C° 0.3 mm 2 mps 724 mmHg 61%
    16:00 +2°C° 0.3 mm 2 mps 723 mmHg 71%
    17:00 +1°C° 0.3 mm 2 mps 723 mmHg 80%
    18:00 +1°C° 0.1 mm 2 mps 722 mmHg 84%
    19:00 +1°C° 0.1 mm 2 mps 722 mmHg 87%
    20:00 +1°C° 0.1 mm 2 mps 722 mmHg 90%
    21:00 +1°C° 0.2 mm 2 mps 722 mmHg 90%
    22:00 +1°C° 0.2 mm 2 mps 721 mmHg 90%
    23:00 0°C° 0.2 mm 3 mps 721 mmHg 91%
    Show more